Lincolnton, NC

4:39 PM EDT on April 20, 2018 (GMT -0400)
Lincolnton-Lincoln County Regional

Weather History for KIPJ - October, 2012

Change the Weather History Date:

Thursday, October 18, 2012

  Actual Average (KCLT) Record (KCLT)
Temperature  
Mean Temperature 58 °F -  
Max Temperature 73 °F 70 °F 87 °F (1938)
Min Temperature 42 °F 48 °F 31 °F (2001)
Degree Days  
Heating Degree Days 8    
Growing Degree Days 8 (Base 50)    
Moisture  
Dew Point 51 °F    
Average Humidity 85    
Maximum Humidity 100    
Minimum Humidity 50    
Precipitation  
Precipitation 0.17 in - - ()
Sea Level Pressure  
Sea Level Pressure 29.85 in    
Wind  
Wind Speed 1 mph (WSW)    
Max Wind Speed 12 mph    
Max Gust Speed 21 mph    
Visibility 8 miles    
Events Fog , Rain    
Averages and records for this station are not official NWS values.
T = Trace of Precipitation, MM = Missing Value Source: NWS Daily Summary

Daily Weather History Graph

Daily Weather History Graph

Search for Another Location

Airport or City:

Astronomy

Oct. 18, 2012 Rise Set
Actual Time 7:33 AM EDT 6:44 PM EDT
Civil Twilight 7:08 AM EDT 7:10 PM EDT
Nautical Twilight 6:38 AM EDT 7:40 PM EDT
Astronomical Twilight 6:09 AM EDT 8:09 PM EDT
Moon 11:07 AM EDT (10/18) 9:25 PM EDT (10/18)
Length of Visible Light 12h 02m
Length of Day
11h 10m
Waxing Crescent, 14% of the Moon is Illuminated
Oct 18
Waxing Crescent
Oct 21
First Quarter
Oct 29
Full
Nov 6
Last Quarter
Nov 13
New

Hourly Weather History & Observations

Time (EDT) Temp. Dew Point Humidity Pressure Visibility Wind Dir Wind Speed Gust Speed Precip Events Conditions
12:15 AM 44.6 °F 44.6 °F 100% 29.91 in 7.0 mi Calm Calm - N/A   Clear
12:35 AM 44.6 °F 44.6 °F 100% 29.91 in 7.0 mi Calm Calm - N/A   Clear
12:55 AM 44.6 °F 42.8 °F 93% 29.91 in 10.0 mi Calm Calm - N/A   Clear
1:15 AM 44.6 °F 44.6 °F 100% 29.90 in 10.0 mi Calm Calm - N/A   Clear
1:35 AM 42.8 °F 42.8 °F 100% 29.91 in 7.0 mi Calm Calm - N/A   Clear
1:55 AM 42.8 °F 42.8 °F 100% 29.91 in 7.0 mi Calm Calm - N/A   Clear
2:15 AM 42.8 °F 42.8 °F 100% 29.91 in 5.0 mi Calm Calm - N/A   Clear
2:35 AM 42.8 °F 42.8 °F 100% 29.91 in 10.0 mi Calm Calm - N/A   Clear
2:55 AM 42.8 °F 42.8 °F 100% 29.91 in 7.0 mi Calm Calm - N/A   Clear
3:15 AM 42.8 °F 42.8 °F 100% 29.90 in 7.0 mi Calm Calm - N/A   Clear
3:35 AM 42.8 °F 42.8 °F 100% 29.90 in 7.0 mi Calm Calm - N/A   Clear
3:55 AM 42.8 °F 42.8 °F 100% 29.90 in 10.0 mi Calm Calm - N/A   Clear
4:15 AM 42.8 °F 42.8 °F 100% 29.90 in 7.0 mi Calm Calm - N/A   Clear
4:35 AM 42.8 °F 42.8 °F 100% 29.90 in 10.0 mi Calm Calm - N/A   Clear
4:55 AM 42.8 °F 42.8 °F 100% 29.90 in 7.0 mi Calm Calm - N/A   Clear
5:15 AM 42.8 °F 42.8 °F 100% 29.90 in 10.0 mi Calm Calm - N/A   Clear
5:35 AM 42.8 °F 42.8 °F 100% 29.90 in 7.0 mi Calm Calm - N/A   Clear
5:55 AM 44.6 °F 42.8 °F 93% 29.90 in 10.0 mi Calm Calm - N/A   Scattered Clouds
6:15 AM 44.6 °F 42.8 °F 93% 29.90 in 10.0 mi Calm Calm - N/A   Mostly Cloudy
6:35 AM 44.6 °F 44.6 °F 100% 29.91 in 7.0 mi Calm Calm - N/A   Mostly Cloudy
6:55 AM 44.6 °F 44.6 °F 100% 29.90 in 7.0 mi Calm Calm - N/A   Mostly Cloudy
7:15 AM 44.6 °F 44.6 °F 100% 29.90 in 7.0 mi Calm Calm - N/A   Mostly Cloudy
7:35 AM 44.6 °F 44.6 °F 100% 29.89 in 7.0 mi Calm Calm - N/A   Mostly Cloudy
7:55 AM 46.4 °F 44.6 °F 93% 29.90 in 7.0 mi Calm Calm - N/A   Overcast
8:15 AM 46.4 °F 46.4 °F 100% 29.92 in 7.0 mi Calm Calm - N/A   Overcast
8:35 AM 48.2 °F 48.2 °F 100% 29.92 in 7.0 mi Calm Calm - N/A   Overcast
8:55 AM 50.0 °F 50.0 °F 100% 29.91 in 7.0 mi Calm Calm - N/A   Overcast
9:15 AM 51.8 °F 50.0 °F 94% 29.91 in 7.0 mi Calm Calm - N/A   Overcast
9:35 AM 51.8 °F 51.8 °F 100% 29.90 in 5.0 mi Calm Calm - N/A   Overcast
9:55 AM 53.6 °F 51.8 °F 94% 29.89 in 7.0 mi Calm Calm - N/A   Overcast
10:15 AM 55.4 °F 53.6 °F 94% 29.87 in 4.0 mi SE 3.5 mph - N/A   Overcast
10:35 AM 59.0 °F 55.4 °F 88% 29.85 in 5.0 mi ESE 4.6 mph - N/A   Overcast
10:55 AM 60.8 °F 55.4 °F 82% 29.86 in 10.0 mi Calm Calm - N/A   Scattered Clouds
11:15 AM 62.6 °F 55.4 °F 77% 29.88 in 10.0 mi West 4.6 mph - N/A   Mostly Cloudy
11:35 AM 64.4 °F 55.4 °F 73% 29.87 in 10.0 mi WSW 3.5 mph - N/A   Scattered Clouds
11:55 AM 68.0 °F 55.4 °F 64% 29.86 in 10.0 mi WSW 3.5 mph - N/A   Scattered Clouds
12:15 PM 68.0 °F 55.4 °F 64% 29.86 in 10.0 mi WSW 4.6 mph - N/A   Mostly Cloudy
12:35 PM 69.8 °F 55.4 °F 60% 29.86 in 10.0 mi West 3.5 mph - N/A   Mostly Cloudy
12:55 PM 68.0 °F 55.4 °F 64% 29.86 in 10.0 mi West 6.9 mph - N/A   Overcast
1:15 PM 69.8 °F 55.4 °F 60% 29.85 in 10.0 mi Calm Calm - N/A   Mostly Cloudy
1:35 PM 73.4 °F 55.4 °F 53% 29.83 in 10.0 mi SW 4.6 mph - N/A   Scattered Clouds
1:55 PM 73.4 °F 55.4 °F 53% 29.82 in 10.0 mi WSW 6.9 mph - N/A   Mostly Cloudy
2:15 PM 71.6 °F 55.4 °F 57% 29.82 in 10.0 mi SSW 11.5 mph 20.7 mph N/A   Overcast
2:35 PM 73.4 °F 53.6 °F 50% 29.81 in 10.0 mi Calm Calm - N/A   Mostly Cloudy
2:55 PM 71.6 °F 53.6 °F 53% 29.80 in 10.0 mi WSW 8.1 mph 16.1 mph N/A   Mostly Cloudy
3:15 PM 71.6 °F 53.6 °F 53% 29.80 in 10.0 mi WSW 8.1 mph - N/A   Overcast
3:35 PM 71.6 °F 53.6 °F 53% 29.80 in 10.0 mi WSW 8.1 mph - N/A   Overcast
3:55 PM 71.6 °F 53.6 °F 53% 29.80 in 10.0 mi SW 8.1 mph - N/A   Overcast
4:15 PM 71.6 °F 53.6 °F 53% 29.80 in 10.0 mi SW 5.8 mph - N/A   Overcast
4:35 PM 73.4 °F 53.6 °F 50% 29.78 in 10.0 mi SSW 6.9 mph - N/A   Mostly Cloudy
4:55 PM 71.6 °F 55.4 °F 57% 29.79 in 10.0 mi West 3.5 mph - N/A   Overcast
5:15 PM 71.6 °F 55.4 °F 57% 29.78 in 10.0 mi West 3.5 mph - N/A   Overcast
5:35 PM 71.6 °F 55.4 °F 57% 29.79 in 10.0 mi West 3.5 mph - N/A   Overcast
5:55 PM 69.8 °F 55.4 °F 60% 29.79 in 10.0 mi Calm Calm - N/A   Overcast
6:15 PM 69.8 °F 55.4 °F 60% 29.79 in 10.0 mi Calm Calm - N/A   Overcast
6:35 PM 68.0 °F 55.4 °F 64% 29.80 in 10.0 mi Calm Calm - N/A   Overcast
6:55 PM 66.2 °F 55.4 °F 68% 29.80 in 10.0 mi Calm Calm - N/A   Overcast
7:15 PM 64.4 °F 59.0 °F 83% 29.80 in 10.0 mi Calm Calm - N/A Rain Light Rain
7:35 PM 62.6 °F 60.8 °F 94% 29.82 in 10.0 mi West 6.9 mph - 0.08 in Rain Light Rain
7:55 PM 62.6 °F 60.8 °F 94% 29.82 in 10.0 mi Calm Calm - 0.16 in Rain Light Rain
8:15 PM 62.6 °F 60.8 °F 94% 29.81 in 7.0 mi Calm Calm - N/A   Mostly Cloudy
8:35 PM 60.8 °F 60.8 °F 100% 29.81 in 4.0 mi Calm Calm - N/A   Overcast
8:55 PM 60.8 °F 60.8 °F 100% 29.80 in 4.0 mi Calm Calm - 0.01 in Rain Rain
9:35 PM 59.0 °F 59.0 °F 100% 29.79 in 0.5 mi Calm Calm - N/A Fog Fog
9:55 PM 59.0 °F 59.0 °F 100% 29.80 in 1.0 mi Calm Calm - N/A   Mostly Cloudy
10:15 PM 57.2 °F 57.2 °F 100% 29.80 in 0.2 mi Calm Calm - N/A Fog Fog
10:35 PM 57.2 °F 57.2 °F 100% 29.79 in 0.2 mi Calm Calm - N/A Fog Fog
10:55 PM 57.2 °F 57.2 °F 100% 29.79 in 1.0 mi Calm Calm - N/A   Mostly Cloudy
11:15 PM 55.4 °F 55.4 °F 100% 29.79 in 0.2 mi Calm Calm - N/A Fog Fog
11:35 PM 55.4 °F 55.4 °F 100% 29.79 in 0.2 mi Calm Calm - N/A Fog Fog
11:55 PM 55.4 °F 55.4 °F 100% 29.78 in 0.2 mi Calm Calm - N/A Fog Fog